• Join FlightAware (Why Join?)
  • Login
  • US Flag GB Flag 
08:44 EDT


 

Airport Tracker/Info


-or-


 

Live Flight TrackerFlight Track Log ✈ USC105 ✈ 18-Apr-2013 ✈ KDPA - KYIP

Flight Track Log - Related Links

Times and Time Zones

All times are in EDT time to prevent confusion due to time zone crossing. See the USC105 flight status page for this flight to view local times or setup timezone preferences in your user account.

Time Position Orientation Groundspeed Altitude Reporting Facility
EDT Latitude Longitude Course Direction KTS MPH feet Rate Location/Type
06:21 41.9465 -87.8070 153° Southeast  Level Estimated
06:22 41.8917 -87.8147 186° South  Level FlightAware Approximate
06:23 41.8369 -87.8224 186° South  Level FlightAware Approximate
06:24 41.7821 -87.8301 186° South  Level FlightAware Approximate
06:25 41.7273 -87.8378 186° South  Level FlightAware Approximate
06:26 41.7374 -87.7652 151° Southeast  Level Estimated
06:27 41.6823 -87.7673 182° South  Level FlightAware Approximate
06:28 41.6273 -87.7695 182° South  Level FlightAware Approximate
06:29 41.6391 -87.6975 73° East  Level Estimated
06:30 41.6002 -87.6453 135° Southeast  Level FlightAware Approximate
06:31 41.5614 -87.5931 135° Southeast  Level FlightAware Approximate
06:32 41.5225 -87.5410 135° Southeast  Level FlightAware Approximate
06:33 41.4835 -87.4890 135° Southeast  Level FlightAware Approximate
06:34 41.4446 -87.4370 135° Southeast  Level FlightAware Approximate
06:35 41.4603 -87.3666 72° East  Level Estimated
06:36 41.4470 -87.2953 104° East  Level FlightAware Approximate
06:37 41.4337 -87.2240 104° East  Level FlightAware Approximate
06:38 41.4503 -87.1539 72° East  Level Estimated
06:38 41.8461 -86.9214 76° East 184 212 6,700  Level Chicago Center
06:39 41.4639 -87.0827 76° East  Level FlightAware Approximate
06:39 41.8578 -86.8442 79° East 208 239 7,000  Level Chicago Center
06:40 41.4776 -87.0115 76° East  Level FlightAware Approximate
06:40 41.8681 -86.7650 80° East 215 247 7,000  Level Chicago Center
06:41 41.4912 -86.9402 76° East  Level FlightAware Approximate
06:41 41.8769 -86.6897 81° East 203 234 7,000  Level Chicago Center
06:42 41.5047 -86.8690 76° East  Level FlightAware Approximate
06:42 41.8856 -86.6131 81° East 206 237 7,000  Level Chicago Center
06:43 41.5182 -86.7977 76° East  Level FlightAware Approximate
06:43 41.8958 -86.5303 81° East 220 253 7,000  Level Chicago Center
06:44 41.5317 -86.7263 76° East  Level FlightAware Approximate
06:44 41.9086 -86.4433 79° East 234 269 7,000  Level Chicago Center
06:45 41.9186 -86.3561 81° East 236 272 7,000  Level Chicago Center
06:46 41.9297 -86.2703 80° East 235 270 7,000  Level Chicago Center
06:47 41.9417 -86.1842 79° East 235 270 7,000  Level Chicago Center
06:48 41.9517 -86.0964 81° East 237 273 7,000  Level Chicago Center
06:49 41.9628 -86.0089 80° East 238 274 7,000  Level Chicago Center
06:50 41.9739 -85.9206 80° East 238 274 7,000  Level Chicago Center
06:51 41.9844 -85.8333 81° East 238 274 7,000  Level Chicago Center
06:52 41.9947 -85.7464 81° East 237 273 7,000  Level Chicago Center
06:53 42.0058 -85.6583 80° East 237 273 7,000  Level Chicago Center
06:54 42.0156 -85.5719 81° East 235 270 7,000  Level Chicago Center
06:55 42.0269 -85.4853 80° East 234 269 7,000  Level Chicago Center
06:56 42.0367 -85.3989 81° East 234 269 7,000  Level Chicago Center
06:57 42.0481 -85.2947 82° East 234 269 7,000  Level Chicago Center
06:58 42.0594 -85.2075 80° East 235 270 7,000  Level Chicago Center
06:59 42.0686 -85.1228 82° East 231 266 7,000  Level Chicago Center
07:00 42.0783 -85.0375 81° East 230 265 7,000  Level Chicago Center
07:01 42.0883 -84.9522 81° East 231 266 7,000  Level Chicago Center
07:02 42.0978 -84.8661 82° East 232 267 7,000  Level Chicago Center
07:03 42.1067 -84.7819 82° East 229 264 7,000  Level Chicago Center
07:04 42.1169 -84.6986 81° East 227 261 7,000  Level Chicago Center
07:06 42.1264 -84.6139 81° East 228 262 7,000 60 Level Chicago Center
07:06 42.1292 -84.5808 84° East 226 260 7,100 120 Climbing FAA TRACON SMA TRACON (SMA)
07:06 42.1311 -84.5619 82° East 224 258 7,100 -180 Level FAA TRACON SMA TRACON (SMA)
07:06 42.1347 -84.5300 81° East 223 257 7,000 -480 Descending FAA TRACON SMA TRACON (SMA)
07:07 42.1375 -84.5044 82° East 224 258 6,800 -780 Descending FAA TRACON SMA TRACON (SMA)
07:07 42.1400 -84.4775 83° East 231 266 6,500 -900 Descending FAA TRACON SMA TRACON (SMA)
07:07 42.1436 -84.4428 82° East 240 276 6,200 -600 Descending FAA TRACON SMA TRACON (SMA)
07:08 42.1469 -84.4147 81° East 243 280 6,100 -300 Descending FAA TRACON SMA TRACON (SMA)
07:08 42.1508 -84.3878 79° East 240 276 6,000 -600 Descending FAA TRACON SMA TRACON (SMA)
07:08 42.1544 -84.3550 82° East 235 270 5,700 -780 Descending FAA TRACON SMA TRACON (SMA)
07:09 42.1572 -84.3286 82° East 232 267 5,500 -600 Descending FAA TRACON SMA TRACON (SMA)
07:09 42.1597 -84.2986 84° East 232 267 5,300 -780 Descending FAA TRACON SMA TRACON (SMA)
07:09 42.1628 -84.2692 82° East 232 267 5,000 -480 Descending FAA TRACON SMA TRACON (SMA)
07:10 42.1661 -84.2431 80° East 229 264 5,000  Level FAA TRACON SMA TRACON (SMA)
07:10 42.1689 -84.2189 81° East 220 253 5,000  Level FAA TRACON SMA TRACON (SMA)
07:11 42.1719 -84.1897 82° East 208 239 5,000  Level FAA TRACON SMA TRACON (SMA)
07:11 42.1742 -84.1669 82° East 202 232 5,000  Level FAA TRACON SMA TRACON (SMA)
07:11 42.1767 -84.1442 82° East 201 231 5,000  Level FAA TRACON SMA TRACON (SMA)
07:11 42.1800 -84.1164 81° East 197 227 5,000 -480 Level FAA TRACON SMA TRACON (SMA)
07:12 42.1831 -84.0936 80° East 199 229 4,700 -900 Descending FAA TRACON SMA TRACON (SMA)
07:12 42.1867 -84.0692 79° East 214 246 4,400 -900 Descending FAA TRACON SMA TRACON (SMA)
07:12 42.1900 -84.0369 82° East 221 254 4,100 -600 Descending FAA TRACON SMA TRACON (SMA)
07:13 42.1928 -84.0122 81° East 219 252 4,000 -300 Descending FAA TRACON SMA TRACON (SMA)
07:13 42.1956 -83.9883 81° East 215 247 3,900 -300 Descending FAA TRACON SMA TRACON (SMA)
07:13 42.1989 -83.9592 81° East 207 238 3,800 -600 Descending FAA TRACON SMA TRACON (SMA)
07:14 42.2017 -83.9358 81° East 207 238 3,500 -1,020 Descending FAA TRACON SMA TRACON (SMA)
07:14 42.2056 -83.9133 77° East 206 237 3,200 -420 Descending Cleveland Center
07:15 42.2142 -83.8356 81° East 196 226 3,000 -120 Descending Cleveland Center
07:16 42.2181 -83.7628 86° East 164 189 3,000  Level Cleveland Center
07:17 42.2217 -83.7069 85° East 163 188 3,000  Level Cleveland Center
07:18 42.2461 -83.6575 56° Northeast 176 203 3,100  Climbing Cleveland Center
07:19 42.2564 -83.6175 71° East 174 200 3,000 -300 Descending FAA TRACON SMA TRACON (SMA)
07:19 42.2606 -83.5928 77° East 178 205 2,800 -600 Descending FAA TRACON SMA TRACON (SMA)
07:20 42.2642 -83.5717 77° East 183 211 2,600 -780 Descending FAA TRACON SMA TRACON (SMA)
07:20 42.2681 -83.5508 76° East 186 214 2,300 -780 Descending FAA TRACON SMA TRACON (SMA)
07:20 42.2692 -83.5275 86° East 143 165 2,100 -900 Descending FAA TRACON SMA TRACON (SMA)
07:21 42.2639 -83.5156 121° Southeast 108 124 1,700 -1,080 Descending FAA TRACON SMA TRACON (SMA)
07:21 42.2569 -83.5106 152° Southeast 105 121 1,400 -1,200 Descending FAA TRACON SMA TRACON (SMA)
07:21 42.2483 -83.5147 200° South 102 117 900 -540 Descending FAA TRACON SMA TRACON (SMA)
07:22 42.2483 -83.5147 334° Northwest 102 117 900  Level FAA TRACON SMA TRACON (SMA)